logo
Rechercher aéroport 
image banner adimage banner adimage banner ad
image banner ad

5CL4 - Natividad Medical Center

Situé à Salinas, United States

ICAO - 5CL4, IATA -

Données fournies par Airmate  

Information générale

Coordonnées: N36°41'51" W121°38'4"
Élévation : 70 feet MSL.
Variation magnétique : 13° East
Voir autres Aéroports à California

Données opérationnelles

Special qualification required
Heure actuelle UTC:
Heure actuelle locale:
Météo à : KSNS - Salinas Muni ( 5 km )
METAR: KSNS 281310Z 16005KT 3/4SM R31/1600V3500FT BR OVC002 14/13 A2999 RMK AO2 T01440128
TAF: KSNS 281253Z 2813/2912 16005KT 4SM BR OVC002 TEMPO 2813/2815 2SM BR FM281700 29005KT P6SM FEW005 SCT250 FM282100 27011KT P6SM SCT250 FM290300 28007KT P6SM BKN015 FM290700 30005KT P6SM OVC007
Voir NOTAMs / SUP AIP / TFR affectant cet aéroport [VIEW]
Fréquences de communication: [VIEW]

Pistes:

Coordonnées de l'aéroport

Adresse: Salinas United States

Vue satellite de 5CL4